When you browse on this site, cookies collect data to enhance your experience and personalize the content and advertising you see.
Visit our Privacy Policy to learn more. By continuing to use the site, you agree to this use of cookies and data.
  • In Deutschland
  • Länderverzeichnis
  • Für 7 Tage
  • Wassertemperatur
  • Satellitenkarten
  • Wetterkarte
  • Widgets
  • user-avatar
    Anmelden

    Stündliche Wetter Natania

    Heute, 15 Dezember, Samstag

    Zeit Temperatur Niederschläge Wind Luftdruck Luftfeuchtigkeit
    00:00 +15°C° 0 mm 5 m/S 762 mmHg 52%
    01:00 +15°C° 0 mm 5 m/S 761 mmHg 55%
    02:00 +15°C° 0 mm 6 m/S 761 mmHg 57%
    03:00 +15°C° 0 mm 6 m/S 761 mmHg 58%
    04:00 +14°C° 0 mm 6 m/S 761 mmHg 59%
    05:00 +14°C° 0 mm 6 m/S 761 mmHg 59%
    06:00 +15°C° 0 mm 6 m/S 761 mmHg 58%
    07:00 +15°C° 0 mm 6 m/S 761 mmHg 57%
    08:00 +16°C° 0 mm 6 m/S 761 mmHg 55%
    09:00 +17°C° 0 mm 6 m/S 761 mmHg 51%
    10:00 +20°C° 0 mm 6 m/S 760 mmHg 46%
    11:00 +21°C° 0 mm 6 m/S 760 mmHg 42%
    12:00 +22°C° 0 mm 6 m/S 760 mmHg 41%
    13:00 +23°C° 0 mm 5 m/S 759 mmHg 39%
    14:00 +23°C° 0 mm 5 m/S 759 mmHg 38%
    15:00 +22°C° 0 mm 5 m/S 759 mmHg 41%
    16:00 +21°C° 0 mm 5 m/S 759 mmHg 45%
    17:00 +20°C° 0 mm 4 m/S 758 mmHg 48%
    18:00 +20°C° 0 mm 5 m/S 758 mmHg 49%
    19:00 +19°C° 0 mm 5 m/S 758 mmHg 51%
    20:00 +19°C° 0 mm 5 m/S 758 mmHg 52%
    21:00 +19°C° 0 mm 5 m/S 758 mmHg 54%
    22:00 +17°C° 0 mm 5 m/S 758 mmHg 55%
    23:00 +17°C° 0 mm 5 m/S 758 mmHg 56%

    Morgen, 16 Dezember, Sonntag

    Zeit Temperatur Niederschläge Wind Luftdruck Luftfeuchtigkeit
    00:00 +17°C° 0 mm 5 m/S 758 mmHg 56%
    01:00 +17°C° 0 mm 5 m/S 758 mmHg 57%
    02:00 +16°C° 0 mm 5 m/S 758 mmHg 57%
    03:00 +16°C° 0 mm 5 m/S 757 mmHg 57%
    04:00 +16°C° 0 mm 5 m/S 757 mmHg 57%
    05:00 +16°C° 0 mm 5 m/S 757 mmHg 57%
    06:00 +16°C° 0 mm 5 m/S 757 mmHg 57%
    07:00 +16°C° 0 mm 5 m/S 757 mmHg 56%
    08:00 +17°C° 0 mm 5 m/S 757 mmHg 56%
    09:00 +19°C° 0 mm 5 m/S 757 mmHg 53%
    10:00 +20°C° 0 mm 5 m/S 757 mmHg 50%
    11:00 +21°C° 0 mm 4 m/S 757 mmHg 47%
    12:00 +21°C° 0 mm 4 m/S 757 mmHg 46%
    13:00 +22°C° 0 mm 3 m/S 757 mmHg 45%
    14:00 +22°C° 0 mm 3 m/S 756 mmHg 44%
    15:00 +21°C° 0 mm 3 m/S 756 mmHg 48%
    16:00 +21°C° 0 mm 2 m/S 756 mmHg 51%
    17:00 +20°C° 0 mm 2 m/S 756 mmHg 54%
    18:00 +20°C° 0 mm 2 m/S 757 mmHg 56%
    19:00 +19°C° 0 mm 2 m/S 757 mmHg 57%
    20:00 +19°C° 0 mm 2 m/S 757 mmHg 59%
    21:00 +18°C° 0 mm 2 m/S 757 mmHg 61%
    22:00 +18°C° 0 mm 2 m/S 757 mmHg 63%
    23:00 +18°C° 0 mm 2 m/S 757 mmHg 65%

    übermorgen, 17 Dezember, Montag

    Zeit Temperatur Niederschläge Wind Luftdruck Luftfeuchtigkeit
    00:00 +17°C° 0 mm 2 m/S 757 mmHg 66%
    01:00 +17°C° 0 mm 2 m/S 757 mmHg 67%
    02:00 +17°C° 0 mm 2 m/S 757 mmHg 67%
    03:00 +16°C° 0 mm 2 m/S 757 mmHg 66%
    04:00 +16°C° 0 mm 3 m/S 756 mmHg 65%
    05:00 +16°C° 0 mm 3 m/S 756 mmHg 64%
    06:00 +16°C° 0 mm 3 m/S 757 mmHg 61%
    07:00 +17°C° 0 mm 3 m/S 757 mmHg 58%
    08:00 +17°C° 0 mm 3 m/S 757 mmHg 55%
    09:00 +18°C° 0.1 mm 4 m/S 757 mmHg 53%
    10:00 +19°C° 0.1 mm 4 m/S 757 mmHg 51%
    11:00 +20°C° 0.1 mm 5 m/S 757 mmHg 48%
    12:00 +20°C° 0.5 mm 6 m/S 757 mmHg 50%
    13:00 +20°C° 0.5 mm 6 m/S 757 mmHg 52%
    14:00 +20°C° 0.5 mm 7 m/S 756 mmHg 53%
    15:00 +19°C° 0.4 mm 6 m/S 757 mmHg 55%
    16:00 +19°C° 0.4 mm 6 m/S 757 mmHg 57%
    17:00 +17°C° 0.4 mm 5 m/S 757 mmHg 58%
    18:00 +17°C° 0.7 mm 5 m/S 757 mmHg 59%
    19:00 +16°C° 0.7 mm 5 m/S 758 mmHg 59%
    20:00 +16°C° 0.7 mm 5 m/S 758 mmHg 59%
    21:00 +16°C° 0.5 mm 5 m/S 758 mmHg 59%
    22:00 +16°C° 0.5 mm 5 m/S 758 mmHg 58%
    23:00 +15°C° 0.5 mm 5 m/S 758 mmHg 57%

    18 Dezember, Dienstag

    Zeit Temperatur Niederschläge Wind Luftdruck Luftfeuchtigkeit
    00:00 +15°C° 0.4 mm 5 m/S 758 mmHg 61%
    01:00 +15°C° 0.4 mm 5 m/S 759 mmHg 65%
    02:00 +15°C° 0.4 mm 5 m/S 759 mmHg 69%
    03:00 +15°C° 0.6 mm 5 m/S 759 mmHg 72%
    04:00 +15°C° 0.6 mm 5 m/S 759 mmHg 75%
    05:00 +15°C° 0.6 mm 5 m/S 759 mmHg 78%
    06:00 +15°C° 0.5 mm 5 m/S 759 mmHg 77%
    07:00 +15°C° 0.5 mm 4 m/S 760 mmHg 77%
    08:00 +17°C° 0.5 mm 4 m/S 760 mmHg 77%
    09:00 +16°C° 0.3 mm 5 m/S 760 mmHg 74%
    10:00 +16°C° 0.3 mm 5 m/S 760 mmHg 72%
    11:00 +17°C° 0.3 mm 5 m/S 760 mmHg 70%
    12:00 +17°C° 0.2 mm 5 m/S 760 mmHg 68%
    13:00 +19°C° 0.2 mm 5 m/S 759 mmHg 66%
    14:00 +19°C° 0.2 mm 5 m/S 759 mmHg 64%
    15:00 +19°C° 0.3 mm 5 m/S 759 mmHg 66%
    16:00 +18°C° 0.3 mm 4 m/S 759 mmHg 67%
    17:00 +18°C° 0.3 mm 4 m/S 759 mmHg 69%
    18:00 +17°C° 0.3 mm 4 m/S 760 mmHg 69%
    19:00 +17°C° 0.3 mm 4 m/S 760 mmHg 70%
    20:00 +17°C° 0.3 mm 4 m/S 760 mmHg 70%
    21:00 +15°C° 0 mm 4 m/S 760 mmHg 70%
    22:00 +15°C° 0 mm 4 m/S 760 mmHg 69%
    23:00 +15°C° 0 mm 4 m/S 760 mmHg 69%

    19 Dezember, Mittwoch

    Zeit Temperatur Niederschläge Wind Luftdruck Luftfeuchtigkeit
    00:00 +15°C° 0 mm 4 m/S 759 mmHg 69%
    01:00 +15°C° 0 mm 4 m/S 759 mmHg 69%
    02:00 +14°C° 0 mm 4 m/S 759 mmHg 69%
    03:00 +14°C° 0.1 mm 4 m/S 759 mmHg 69%
    04:00 +14°C° 0.1 mm 4 m/S 758 mmHg 68%
    05:00 +14°C° 0.1 mm 4 m/S 758 mmHg 68%
    06:00 +15°C° 0.1 mm 5 m/S 758 mmHg 67%
    07:00 +15°C° 0.1 mm 5 m/S 758 mmHg 65%
    08:00 +16°C° 0.1 mm 5 m/S 759 mmHg 64%
    09:00 +17°C° 0 mm 5 m/S 758 mmHg 61%
    10:00 +19°C° 0 mm 6 m/S 758 mmHg 57%
    11:00 +20°C° 0 mm 6 m/S 758 mmHg 54%
    12:00 +20°C° 0.2 mm 7 m/S 757 mmHg 54%
    13:00 +20°C° 0.2 mm 8 m/S 757 mmHg 53%
    14:00 +19°C° 0.2 mm 9 m/S 757 mmHg 53%
    15:00 +18°C° 0.8 mm 8 m/S 757 mmHg 58%
    16:00 +17°C° 0.8 mm 8 m/S 757 mmHg 63%
    17:00 +16°C° 0.8 mm 8 m/S 757 mmHg 68%
    18:00 +16°C° 0.6 mm 8 m/S 757 mmHg 68%
    19:00 +16°C° 0.6 mm 8 m/S 758 mmHg 68%
    20:00 +16°C° 0.6 mm 8 m/S 758 mmHg 68%
    21:00 +15°C° 0.7 mm 7 m/S 758 mmHg 70%
    22:00 +15°C° 0.7 mm 7 m/S 758 mmHg 72%
    23:00 +15°C° 0.7 mm 7 m/S 758 mmHg 75%

    20 Dezember, Donnerstag

    Zeit Temperatur Niederschläge Wind Luftdruck Luftfeuchtigkeit
    00:00 +15°C° 0.9 mm 7 m/S 758 mmHg 76%
    01:00 +15°C° 0.9 mm 7 m/S 758 mmHg 77%
    02:00 +15°C° 0.9 mm 7 m/S 758 mmHg 79%
    03:00 +15°C° 0.7 mm 7 m/S 758 mmHg 78%
    04:00 +15°C° 0.7 mm 7 m/S 758 mmHg 78%
    05:00 +16°C° 0.7 mm 7 m/S 758 mmHg 77%
    06:00 +16°C° 0.1 mm 7 m/S 759 mmHg 75%
    07:00 +16°C° 0.1 mm 6 m/S 759 mmHg 74%
    08:00 +17°C° 0.1 mm 6 m/S 760 mmHg 72%
    09:00 +17°C° 0.1 mm 6 m/S 760 mmHg 69%
    10:00 +19°C° 0.1 mm 6 m/S 760 mmHg 65%
    11:00 +20°C° 0.1 mm 6 m/S 760 mmHg 62%
    12:00 +20°C° 0.1 mm 6 m/S 760 mmHg 62%
    13:00 +20°C° 0.1 mm 6 m/S 760 mmHg 61%
    14:00 +20°C° 0.1 mm 6 m/S 760 mmHg 61%
    15:00 +19°C° 0.1 mm 6 m/S 761 mmHg 64%
    16:00 +17°C° 0.1 mm 5 m/S 761 mmHg 67%
    17:00 +17°C° 0.1 mm 5 m/S 761 mmHg 70%
    18:00 +16°C° 0 mm 5 m/S 762 mmHg 70%
    19:00 +17°C° 0 mm 4 m/S 762 mmHg 71%
    20:00 +17°C° 0 mm 4 m/S 762 mmHg 71%
    21:00 +15°C° 0 mm 4 m/S 762 mmHg 71%
    22:00 +15°C° 0 mm 4 m/S 762 mmHg 70%
    23:00 +16°C° 0 mm 3 m/S 762 mmHg 70%
    Mehr zeigen